Home   Weather   Neusiedl am See   Past weeks

Flag for Austria Past Weather in Neusiedl am See, Burgenland, Austria — Yesterday and Last 2 Weeks

Now
27 °F

Passing clouds.


Feels Like: 20 °F
Forecast: 14 / 24 °F
Wind: 7 mph from Northwest

Location: Eisenstadt

Current Time: Jan 18, 2017 at 7:11:11 am

Latest Report: Jan 18, 2017 at 6:00 am


Visibility: 9 mi

Pressure: 30.53 "Hg

Humidity: 71%

Dew Point: 19 °F

Location of Neusiedl am SeeLocation

Past Weather in Neusiedl am See — Graph

°F

Neusiedl am See Temperature Yesterday

Maximum temperature yesterday: 32 °F (at 2:00 pm)
Minimum temperature yesterday: 27 °F (at 4:00 am)
Average temperature yesterday: 29 °F

High & Low Weather Summary for the Past Weeks

 TemperatureHumidityPressure
High44 °F (Jan 12, 2:00 pm)94% (Jan 13, 10:00 am)30.60 "Hg (Jan 13, 10:00 am)
Low7 °F (Jan 11, 5:00 am)39% (Jan 7, 3:00 pm)29.44 "Hg (Jan 13, 6:00 am)
Average28 °F67%30.13 "Hg
* Reported Jan 3 5:00 am — Jan 18 5:00 am, Neusiedl am See, Weather by CustomWeather, © 2017

Note: Actual official high and low records may vary slightly from our data, if they occured in-between our weather recording intervals... More about our weather records

Advertising

Neusiedl am See Weather History for the Previous 24 Hours

Scroll right to see more
 ConditionsComfort  
Time TempWeatherWind HumidityBarometerVisibility
5:00 am
Wed, Jan 18
28 °FPassing clouds.6 mph69%30.53 "Hg9 mi
4:00 am28 °FPassing clouds.6 mph69%30.53 "Hg9 mi
3:00 am28 °FChilly.5 mph70%30.54 "HgN/A
2:00 am28 °FChilly.5 mph70%30.54 "HgN/A
1:00 am28 °FPassing clouds.5 mph69%30.53 "Hg9 mi
12:00 am28 °FChilly.2 mph71%30.53 "HgN/A
11:00 pm
Tue, Jan 17
27 °FChilly.1 mph72%30.53 "HgN/A
10:00 pm28 °FChilly.2 mph72%30.52 "HgN/A
9:00 pm28 °FChilly.1 mph71%30.52 "HgN/A
8:00 pm28 °FChilly.1 mph72%30.50 "HgN/A
7:00 pm29 °FPassing clouds.2 mph71%30.48 "Hg5 mi
6:00 pm30 °FChilly.7 mph69%30.45 "HgN/A
5:00 pm31 °FChilly.7 mph68%30.43 "HgN/A
4:00 pm31 °FPartly sunny.7 mph66%30.42 "Hg5 mi
3:00 pm32 °FChilly.7 mph64%30.41 "HgN/A
2:00 pm32 °FChilly.6 mph64%30.41 "HgN/A
1:00 pm31 °FChilly.6 mph65%30.41 "HgN/A
12:00 pm30 °FChilly.6 mph68%30.42 "HgN/A
11:00 am30 °FChilly.7 mph68%30.41 "HgN/A
10:00 am29 °FChilly.8 mph71%30.39 "HgN/A
9:00 am29 °FChilly.7 mph72%30.37 "HgN/A
8:00 am28 °FChilly.5 mph75%30.37 "HgN/A
7:00 am28 °FChilly.5 mph76%30.35 "HgN/A
Weather by CustomWeather, © 2017

See weather overviewHow to use our weather pages